Home > Weather > Kuala Belait > Past weeks

Flag for Brunei Weather for the Past 2 Weeks in Kuala Belait, Brunei

Now
90 °F

Broken clouds.


Feels Like: 105 °F
Forecast: 81 / 90 °F
Wind: 6 mph from East

Location: Miri Airport

Current Time: Apr 30, 2016 at 12:09:54 PM

Latest Report: Apr 30, 2016 at 11:00 AM


Visibility: N/A

Pressure: 29.83 "Hg

Humidity: 71%

Dew Point: 79 °F

Location of Kuala BelaitLocation

Historic Weather in Kuala Belait — Graph

°F

Kuala Belait Temperature Yesterday

Maximum temperature yesterday: 82 °F (at 12:00 AM)
Minimum temperature yesterday: 73 °F (at 9:00 AM)
Average temperature yesterday: 78 °F

High & Low Weather Summary for the Past Weeks

 TemperatureHumidityPressure
High93 °F (Apr 19, 12:00 PM)100% (Apr 18, 7:00 AM)29.92 "Hg (Apr 18, 7:00 AM)
Low73 °F (Apr 29, 9:00 AM)63% (Apr 15, 10:00 AM)29.68 "Hg (Apr 24, 4:00 PM)
Average84 °F84%29.79 "Hg
* Reported Apr 15 10:00 AM — Apr 30 10:00 AM, Kuala Belait, Weather by CustomWeather, © 2016

Note: Actual official high and low records may vary slightly from our data, if they occured in-between our weather recording intervals... More about our weather records

Advertising

Kuala Belait Weather History for the Previous 24 Hours

Scroll right to see more
 ConditionsComfort  
Time TempWeatherWind HumidityBarometerVisibility
10:00 AM
Sat, Apr 30
88 °FBroken clouds.6 mph75%29.86 "HgN/A
9:00 AM84 °FPartly sunny.5 mph79%29.86 "HgN/A
8:00 AM79 °FPartly sunny.2 mph94%29.86 "HgN/A
7:00 AM77 °FPartly sunny.2 mph94%29.83 "HgN/A
6:00 AM75 °FPartly cloudy.1 mph94%29.83 "HgN/A
5:00 AM73 °FPartly cloudy.3 mph100%29.80 "Hg5 mi
4:00 AM75 °FPartly cloudy.1 mph100%29.80 "Hg5 mi
3:00 AM75 °FPartly cloudy.1 mph94%29.80 "Hg5 mi
2:00 AM75 °FPartly cloudy.3 mph100%29.80 "Hg4 mi
1:00 AM75 °FPartly cloudy.3 mph100%29.80 "Hg5 mi
12:00 AM75 °FPartly cloudy.3 mph100%29.80 "HgN/A
11:00 PM
Fri, Apr 29
77 °FPartly cloudy.3 mph94%29.83 "HgN/A
10:00 PM77 °FPartly cloudy.5 mph100%29.83 "HgN/A
9:00 PM77 °FPartly cloudy.2 mph100%29.80 "HgN/A
8:00 PM79 °FPartly cloudy.2 mph94%29.83 "HgN/A
7:00 PM79 °FPartly cloudy.2 mph94%29.80 "HgN/A
6:00 PM81 °FBroken clouds.6 mph89%29.77 "HgN/A
5:00 PM82 °FBroken clouds.3 mph84%29.77 "HgN/A
4:00 PM81 °FBroken clouds.3 mph84%29.77 "HgN/A
3:00 PM79 °FBroken clouds.5 mph94%29.77 "HgN/A
2:00 PM79 °FLight rain. Broken clouds.5 mph94%29.80 "HgN/A
1:00 PM77 °FLight rain. Broken clouds.5 mph94%29.83 "HgN/A
12:00 PM75 °FLight rain. Broken clouds.3 mph100%29.86 "HgN/A
Weather by CustomWeather, © 2016

See weather overviewHow to use our weather pages